Tracking 35331 objects as of 16-Sep-2026
HD Live streaming from Space Station
objects crossing your sky now

COSMOS 1813 DEB


COSMOS 1813 DEB is no longer on orbit


NORAD ID: 19474
Int'l Code: 1987-004HD
Launch date: January 15, 1987
Source: Commonwealth of Independent States (former USSR) (CIS)
Launch site: PLESETSK MISSILE AND SPACE COMPLEX (PKMTR)
Decay date: 1989-06-26

Note: This is SATELLITE DEBRIS
Your satellite tracking list
Your tracking list is empty




NASA's NSSDC Master Catalog

Two Line Element Set (TLE):
1 19474U 87004HD  89176.66668843  .07675315 +30000-5 +51382-2 0  9995
2 19474 072.7678 045.4574 0050442 280.6883 078.9706 16.13633885045968
Source of the keplerian elements: AFSPC